Weather History for RJOO - September, 2013

Change the Weather History Date:

Sunday, September 8, 2013

  Actual Average Record
Temperature  
Mean Temperature 76 °F -  
Max Temperature 82 °F 80 °F 93 °F (2003)
Min Temperature 71 °F 65 °F 62 °F (2011)
Cooling Degree Days 12    
Growing Degree Days 26 (Base 50)    
Moisture  
Dew Point 70 °F    
Average Humidity 85    
Maximum Humidity 100    
Minimum Humidity 58    
Precipitation  
Precipitation 0.00 in - - ()
Sea Level Pressure  
Sea Level Pressure 29.95 in    
Wind  
Wind Speed 3 mph ()    
Max Wind Speed 13 mph    
Max Gust Speed -    
Visibility 5.0 miles    
Events Rain    
Averages and records for this station are not official NWS values.
T = Trace of Precipitation, MM = Missing Value Source: Averaged Metar Reports

Daily Weather History Graph

Daily Weather History Graph

Search for Another Location

Airport or City:

Trip Planner

Search our weather history database for the weather conditions in past years. The results will help you decide how hot, cold, wet, or windy it might be!

Date:

Astronomy

Sep. 08, 2013 Rise Set
Actual Time 5:35 AM JST 6:15 PM JST
Civil Twilight 5:10 AM JST 6:40 PM JST
Nautical Twilight 4:40 AM JST 7:10 PM JST
Astronomical Twilight 4:09 AM JST 7:41 PM JST
Moon 8:05 AM JST (9/8) 7:37 PM JST (9/8)
Length of Visible Light 13h 30m
Length of Day
12h 39m
Waxing Crescent, 7% of the Moon is Illuminated
Sep 8
Waxing Crescent
Sep 13
First Quarter
Sep 19
Full
Sep 27
Last Quarter
Oct 5
New

Hourly Weather History & Observations

Time (JST) Temp. Heat Index Dew Point Humidity Pressure Visibility Wind Dir Wind Speed Gust Speed Precip Events Conditions
5:00 AM 73.4 °F - 69.8 °F 88% 29.92 in 6.2 mi NW 2.3 mph - N/A Rain Light Rain Showers
6:00 AM 71.6 °F - 69.8 °F 94% 29.92 in 5.6 mi NW 3.5 mph - N/A Rain Light Rain Showers
6:15 AM 71.6 °F - 69.8 °F 94% 29.95 in 2.8 mi WNW 4.6 mph - N/A Rain Rain Showers
6:36 AM 71.6 °F - 71.6 °F 100% 29.95 in 3.7 mi NW 2.3 mph - N/A Rain Rain Showers
7:00 AM 71.6 °F - 71.6 °F 100% 29.95 in 3.7 mi Variable 1.2 mph - N/A Rain Light Rain Showers
7:40 AM 73.4 °F - 71.6 °F 94% 29.95 in 2.8 mi Variable 1.2 mph - N/A Rain Light Rain Showers
8:00 AM 73.4 °F - 71.6 °F 94% 29.95 in 2.8 mi Calm Calm - N/A Rain Light Rain Showers
8:09 AM 73.4 °F - 71.6 °F 94% 29.95 in 2.2 mi Variable 1.2 mph - N/A Rain Rain Showers
8:15 AM 73.4 °F - 71.6 °F 94% 29.95 in 2.5 mi WNW 3.5 mph - N/A Rain Heavy Rain Showers
8:25 AM 73.4 °F - 71.6 °F 94% 29.95 in 3.1 mi WNW 4.6 mph - N/A Rain Rain Showers
8:46 AM 73.4 °F - 71.6 °F 94% 29.95 in 5.6 mi WNW 3.5 mph - N/A Rain Light Rain Showers
9:00 AM 73.4 °F - 69.8 °F 88% 29.98 in 5.0 mi WNW 3.5 mph - N/A Rain Light Rain Showers
9:11 AM 73.4 °F - 71.6 °F 94% 29.98 in 5.0 mi Variable 2.3 mph - N/A Rain Rain Showers
9:33 AM 73.4 °F - 71.6 °F 94% 29.98 in 5.0 mi Variable 1.2 mph - N/A Rain Light Rain Showers
9:40 AM 73.4 °F - 69.8 °F 88% 29.98 in 5.0 mi Variable 1.2 mph - N/A Rain Light Rain Showers
9:50 AM 73.4 °F - 69.8 °F 88% 29.98 in 5.6 mi Variable 1.2 mph - N/A Rain Light Rain Showers
10:00 AM 73.4 °F - 69.8 °F 88% 29.98 in 6.2 mi Variable 2.3 mph - N/A Rain Light Rain Showers
11:00 AM 75.2 °F - 69.8 °F 83% 29.95 in 6.2 mi Variable 2.3 mph - N/A Rain Light Rain Showers
11:22 AM 75.2 °F - 71.6 °F 89% 29.95 in 6.2 mi NW 3.5 mph - N/A Rain Light Rain Showers
12:00 PM 75.2 °F - 71.6 °F 89% 29.95 in 6.2 mi NW 3.5 mph - N/A   Mostly Cloudy
1:00 PM 77.0 °F - 69.8 °F 78% 29.92 in 6.2 mi NW 3.5 mph - N/A   Mostly Cloudy
2:00 PM 78.8 °F - 68.0 °F 69% 29.92 in 6.2 mi North 4.6 mph - N/A   Scattered Clouds
3:00 PM 80.6 °F 83.2 °F 68.0 °F 65% 29.92 in 6.2 mi NNW 6.9 mph - N/A   Scattered Clouds
4:00 PM 82.4 °F 84.6 °F 66.2 °F 58% 29.92 in 6.2 mi NNW 6.9 mph - N/A   Scattered Clouds
5:00 PM 80.6 °F 82.7 °F 66.2 °F 61% 29.92 in 6.2 mi North 12.7 mph - N/A   Mostly Cloudy
6:00 PM 77.0 °F - 66.2 °F 69% 29.95 in 6.2 mi North 10.4 mph - N/A   Scattered Clouds
7:00 PM 77.0 °F - 66.2 °F 69% 29.95 in 6.2 mi North 6.9 mph - N/A   Scattered Clouds
8:00 PM 75.2 °F - 64.4 °F 69% 29.95 in 6.2 mi North 10.4 mph - N/A   Scattered Clouds